TimeCST,TemperatureF,Dew PointF,Humidity,Sea Level PressureIn,VisibilityMPH,Wind Direction,Wind SpeedMPH,Gust SpeedMPH,PrecipitationIn,Events,Conditions,WindDirDegrees,DateUTC
12:15 AM,19.4,10.4,68,30.10,10.0,SSW,8.1,-,N/A,,Clear,200,2013-01-16 06:15:00
12:35 AM,19.4,10.4,68,30.10,10.0,South,9.2,-,N/A,,Clear,190,2013-01-16 06:35:00
12:55 AM,19.4,10.4,68,30.09,10.0,SSW,9.2,-,N/A,,Clear,200,2013-01-16 06:55:00
1:15 AM,21.2,12.2,68,30.08,10.0,SSW,10.4,-,N/A,,Clear,200,2013-01-16 07:15:00
1:35 AM,21.2,10.4,63,30.07,10.0,SSW,10.4,-,N/A,,Clear,210,2013-01-16 07:35:00
1:55 AM,21.2,12.2,68,30.06,10.0,SSW,10.4,-,N/A,,Clear,210,2013-01-16 07:55:00
2:15 AM,21.2,12.2,68,30.07,10.0,SSW,9.2,-,N/A,,Clear,210,2013-01-16 08:15:00
2:35 AM,21.2,12.2,68,30.07,10.0,SW,9.2,-,N/A,,Clear,220,2013-01-16 08:35:00
2:55 AM,23.0,12.2,63,30.06,10.0,SW,9.2,-,N/A,,Clear,220,2013-01-16 08:55:00
3:15 AM,23.0,12.2,63,30.04,10.0,SSW,10.4,16.1,N/A,,Clear,210,2013-01-16 09:15:00
3:35 AM,21.2,12.2,68,30.03,10.0,SSW,8.1,-,N/A,,Clear,210,2013-01-16 09:35:00
3:55 AM,21.2,12.2,68,30.02,10.0,SSW,10.4,-,N/A,,Clear,210,2013-01-16 09:55:00
4:35 AM,21.2,12.2,68,30.00,10.0,SSW,10.4,-,N/A,,Clear,200,2013-01-16 10:35:00
4:55 AM,19.4,12.2,74,30.00,10.0,SSW,9.2,-,N/A,,Clear,200,2013-01-16 10:55:00
5:35 AM,21.2,12.2,68,29.97,10.0,SSW,11.5,-,N/A,,Clear,200,2013-01-16 11:35:00
5:55 AM,21.2,12.2,68,29.96,10.0,SSW,13.8,-,N/A,,Clear,210,2013-01-16 11:55:00
6:35 AM,23.0,14.0,68,29.96,10.0,SW,10.4,-,N/A,,Clear,220,2013-01-16 12:35:00
6:55 AM,24.8,15.8,69,29.96,10.0,SW,12.7,-,N/A,,Clear,220,2013-01-16 12:55:00
7:15 AM,24.8,15.8,69,29.96,10.0,SW,12.7,-,N/A,,Clear,220,2013-01-16 13:15:00
7:35 AM,26.6,15.8,64,29.96,10.0,SW,11.5,-,N/A,,Mostly Cloudy,220,2013-01-16 13:35:00
7:55 AM,26.6,15.8,64,29.95,10.0,SW,12.7,17.3,N/A,,Overcast,220,2013-01-16 13:55:00
8:15 AM,28.4,15.8,59,29.95,10.0,SW,12.7,18.4,N/A,,Overcast,220,2013-01-16 14:15:00
8:35 AM,28.4,17.6,64,29.96,10.0,SW,13.8,17.3,N/A,,Overcast,230,2013-01-16 14:35:00
8:55 AM,28.4,17.6,64,29.96,10.0,SW,11.5,-,N/A,,Overcast,230,2013-01-16 14:55:00
9:15 AM,30.2,17.6,60,29.97,10.0,SW,11.5,17.3,N/A,,Overcast,230,2013-01-16 15:15:00
9:35 AM,30.2,17.6,60,29.95,10.0,SW,12.7,18.4,N/A,,Overcast,230,2013-01-16 15:35:00
9:55 AM,32.0,19.4,60,29.95,10.0,WSW,13.8,-,N/A,,Mostly Cloudy,240,2013-01-16 15:55:00
10:15 AM,35.6,21.2,56,29.94,10.0,WSW,13.8,18.4,N/A,,Scattered Clouds,240,2013-01-16 16:15:00
10:35 AM,35.6,21.2,56,29.94,10.0,WSW,12.7,-,N/A,,Clear,240,2013-01-16 16:35:00
10:55 AM,39.2,23.0,52,29.94,10.0,WSW,13.8,-,N/A,,Clear,250,2013-01-16 16:55:00
11:15 AM,37.4,24.8,60,29.95,10.0,West,13.8,-,N/A,,Scattered Clouds,260,2013-01-16 17:15:00
11:35 AM,39.2,24.8,56,29.95,10.0,West,11.5,-,N/A,,Scattered Clouds,260,2013-01-16 17:35:00
11:55 AM,42.8,26.6,53,29.94,10.0,WSW,11.5,-,N/A,,Clear,250,2013-01-16 17:55:00
12:15 PM,42.8,26.6,53,29.94,10.0,West,10.4,19.6,N/A,,Scattered Clouds,260,2013-01-16 18:15:00
12:35 PM,44.6,28.4,53,29.92,10.0,West,11.5,-,N/A,,Clear,260,2013-01-16 18:35:00
12:55 PM,44.6,28.4,53,29.92,10.0,WSW,16.1,20.7,N/A,,Scattered Clouds,250,2013-01-16 18:55:00
1:15 PM,44.6,28.4,53,29.92,10.0,WSW,10.4,-,N/A,,Clear,250,2013-01-16 19:15:00
1:35 PM,46.4,30.2,53,29.92,10.0,West,13.8,18.4,N/A,,Clear,270,2013-01-16 19:35:00
2:15 PM,48.2,32.0,54,29.93,10.0,West,15.0,-,N/A,,Clear,270,2013-01-16 20:15:00
2:35 PM,48.2,32.0,54,29.93,10.0,West,13.8,-,N/A,,Clear,280,2013-01-16 20:35:00
2:55 PM,48.2,32.0,54,29.94,10.0,West,11.5,-,N/A,,Clear,270,2013-01-16 20:55:00
3:15 PM,48.2,32.0,54,29.95,10.0,West,13.8,-,N/A,,Clear,270,2013-01-16 21:15:00
3:35 PM,48.2,32.0,54,29.95,10.0,WSW,15.0,-,N/A,,Clear,250,2013-01-16 21:35:00
3:55 PM,48.2,32.0,54,29.96,10.0,WSW,11.5,-,N/A,,Clear,250,2013-01-16 21:55:00
4:35 PM,46.4,32.0,57,29.97,10.0,WSW,8.1,-,N/A,,Clear,250,2013-01-16 22:35:00
4:55 PM,46.4,30.2,53,29.98,10.0,WSW,5.8,-,N/A,,Clear,250,2013-01-16 22:55:00
5:15 PM,44.6,30.2,57,29.99,10.0,WSW,3.5,-,N/A,,Clear,240,2013-01-16 23:15:00
5:35 PM,44.6,30.2,57,29.99,10.0,WSW,4.6,-,N/A,,Clear,240,2013-01-16 23:35:00
5:55 PM,44.6,32.0,61,30.01,10.0,WSW,6.9,-,N/A,,Mostly Cloudy,250,2013-01-16 23:55:00
6:15 PM,44.6,32.0,61,30.02,10.0,WSW,6.9,-,N/A,,Overcast,240,2013-01-17 00:15:00
6:35 PM,42.8,30.2,61,30.03,10.0,WSW,6.9,-,N/A,,Scattered Clouds,250,2013-01-17 00:35:00
6:55 PM,39.2,30.2,70,30.04,10.0,WSW,5.8,-,N/A,,Clear,240,2013-01-17 00:55:00
7:15 PM,41.0,30.2,65,30.04,10.0,WSW,5.8,-,N/A,,Mostly Cloudy,250,2013-01-17 01:15:00
7:35 PM,41.0,30.2,65,30.05,10.0,WSW,4.6,-,N/A,,Scattered Clouds,250,2013-01-17 01:35:00
7:55 PM,39.2,30.2,70,30.06,10.0,West,9.2,-,N/A,,Clear,280,2013-01-17 01:55:00
8:15 PM,39.2,32.0,75,30.06,10.0,WNW,11.5,-,N/A,,Clear,300,2013-01-17 02:15:00
8:35 PM,39.2,32.0,75,30.07,10.0,NW,10.4,-,N/A,,Clear,310,2013-01-17 02:35:00
8:55 PM,39.2,32.0,75,30.09,10.0,NW,9.2,-,N/A,,Clear,320,2013-01-17 02:55:00
9:15 PM,39.2,30.2,70,30.09,10.0,NW,10.4,-,N/A,,Clear,320,2013-01-17 03:15:00
9:35 PM,39.2,32.0,75,30.10,10.0,NW,9.2,16.1,N/A,,Clear,320,2013-01-17 03:35:00
9:55 PM,39.2,32.0,75,30.12,10.0,NNW,10.4,-,N/A,,Clear,330,2013-01-17 03:55:00
10:15 PM,37.4,30.2,75,30.13,10.0,NNW,10.4,-,N/A,,Clear,330,2013-01-17 04:15:00
10:35 PM,37.4,30.2,75,30.14,10.0,NNW,15.0,19.6,N/A,,Scattered Clouds,340,2013-01-17 04:35:00
10:55 PM,37.4,30.2,75,30.14,10.0,NNW,13.8,-,N/A,,Scattered Clouds,330,2013-01-17 04:55:00
11:15 PM,37.4,30.2,75,30.16,10.0,NNW,15.0,20.7,N/A,,Scattered Clouds,340,2013-01-17 05:15:00
11:35 PM,35.6,30.2,81,30.18,10.0,NNW,20.7,26.5,N/A,,Mostly Cloudy,340,2013-01-17 05:35:00
11:55 PM,35.6,28.4,75,30.20,10.0,North,13.8,17.3,N/A,,Mostly Cloudy,360,2013-01-17 05:55:00